Time,TemperatureF,DewpointF,PressureIn,WindDirection,WindDirectionDegrees,WindSpeedMPH,WindSpeedGustMPH,Humidity,HourlyPrecipIn,Conditions,Clouds,dailyrainin,SoftwareType,DateUTC
2013-07-13 00:11:00,76.5,73.7,29.78,ESE,112,0.0,-999.0,91,-99.99,,,0.00,Acu-Link.com,2013-07-13 04:11:00,
2013-07-13 00:26:00,76.5,73.3,29.78,East,90,0.0,-999.0,90,-99.99,,,0.00,Acu-Link.com,2013-07-13 04:26:00,
2013-07-13 00:41:00,76.1,72.9,29.78,South,180,0.0,-999.0,90,-99.99,,,0.00,Acu-Link.com,2013-07-13 04:41:00,
2013-07-13 00:56:00,76.3,73.5,29.79,West,270,0.0,-999.0,91,-99.99,,,0.00,Acu-Link.com,2013-07-13 04:56:00,
2013-07-13 01:11:00,76.1,73.3,29.79,SSE,157,0.0,-999.0,91,-99.99,,,0.00,Acu-Link.com,2013-07-13 05:11:00,
2013-07-13 01:27:00,76.1,73.3,29.80,West,270,0.0,-999.0,91,-99.99,,,0.00,Acu-Link.com,2013-07-13 05:27:00,
2013-07-13 01:42:00,75.7,72.9,29.79,NNE,22,0.0,-999.0,91,-99.99,,,0.00,Acu-Link.com,2013-07-13 05:42:00,
2013-07-13 01:57:00,75.6,73.1,29.79,NE,45,0.0,-999.0,92,-99.99,,,0.00,Acu-Link.com,2013-07-13 05:57:00,
2013-07-13 02:12:00,75.0,72.5,29.79,NE,45,0.0,-999.0,92,-99.99,,,0.00,Acu-Link.com,2013-07-13 06:12:00,
2013-07-13 02:27:00,74.7,72.2,29.77,NE,45,0.0,-999.0,92,-99.99,,,0.00,Acu-Link.com,2013-07-13 06:27:00,
2013-07-13 02:42:00,74.1,71.9,29.78,ENE,67,0.0,-999.0,93,-99.99,,,0.00,Acu-Link.com,2013-07-13 06:42:00,
2013-07-13 02:57:00,73.9,71.7,29.79,NNE,22,0.0,-999.0,93,-99.99,,,0.00,Acu-Link.com,2013-07-13 06:57:00,
2013-07-13 03:12:00,73.9,71.7,29.79,NW,315,0.0,-999.0,93,-99.99,,,0.00,Acu-Link.com,2013-07-13 07:12:00,
2013-07-13 03:27:00,73.9,71.7,29.79,NE,45,0.0,-999.0,93,-99.99,,,0.00,Acu-Link.com,2013-07-13 07:27:00,
2013-07-13 03:42:00,73.9,72.1,29.79,NNE,22,0.0,-999.0,94,-99.99,,,0.00,Acu-Link.com,2013-07-13 07:42:00,
2013-07-13 03:58:00,75.0,73.8,29.79,NE,45,1.7,-999.0,96,-99.99,,,0.01,Acu-Link.com,2013-07-13 07:58:00,
2013-07-13 04:13:00,74.8,73.6,29.79,ESE,112,2.2,-999.0,96,-99.99,,,0.17,Acu-Link.com,2013-07-13 08:13:00,
2013-07-13 04:28:00,76.1,74.9,29.79,SE,135,1.1,-999.0,96,-99.99,,,0.17,Acu-Link.com,2013-07-13 08:28:00,
2013-07-13 04:43:00,76.1,74.9,29.79,SSW,202,2.7,-999.0,96,-99.99,,,0.17,Acu-Link.com,2013-07-13 08:43:00,
2013-07-13 04:59:00,75.6,74.4,29.80,South,180,2.7,-999.0,96,-99.99,,,0.17,Acu-Link.com,2013-07-13 08:59:00,
2013-07-13 05:14:00,74.8,73.0,29.81,South,180,1.7,-999.0,94,-99.99,,,0.17,Acu-Link.com,2013-07-13 09:14:00,
2013-07-13 05:29:00,75.4,73.2,29.81,SE,135,0.0,-999.0,93,-99.99,,,0.17,Acu-Link.com,2013-07-13 09:29:00,
2013-07-13 05:44:00,75.7,73.5,29.82,South,180,0.0,-999.0,93,-99.99,,,0.17,Acu-Link.com,2013-07-13 09:44:00,
2013-07-13 05:59:00,76.1,73.6,29.82,West,270,1.7,-999.0,92,-99.99,,,0.17,Acu-Link.com,2013-07-13 09:59:00,
2013-07-13 06:14:00,76.5,74.0,29.82,South,180,0.0,-999.0,92,-99.99,,,0.17,Acu-Link.com,2013-07-13 10:14:00,
2013-07-13 06:29:00,75.9,73.4,29.83,WSW,247,3.2,-999.0,92,-99.99,,,0.17,Acu-Link.com,2013-07-13 10:29:00,
2013-07-13 06:44:00,75.9,73.1,29.84,SW,225,2.2,-999.0,91,-99.99,,,0.17,Acu-Link.com,2013-07-13 10:44:00,
2013-07-13 07:00:00,76.3,72.8,29.83,SSW,202,1.1,-999.0,89,-99.99,,,0.18,Acu-Link.com,2013-07-13 11:00:00,
2013-07-13 07:15:00,77.0,73.5,29.83,WSW,247,1.1,-999.0,89,-99.99,,,0.18,Acu-Link.com,2013-07-13 11:15:00,
2013-07-13 07:30:00,77.0,73.2,29.83,WSW,247,0.0,-999.0,88,-99.99,,,0.18,Acu-Link.com,2013-07-13 11:30:00,
2013-07-13 07:45:00,77.0,73.8,29.85,South,180,0.0,-999.0,90,-99.99,,,0.18,Acu-Link.com,2013-07-13 11:45:00,
2013-07-13 08:00:00,78.1,74.6,29.86,SSW,202,0.0,-999.0,89,-99.99,,,0.18,Acu-Link.com,2013-07-13 12:00:00,
2013-07-13 08:15:00,77.4,73.2,29.86,SSW,202,3.7,-999.0,87,-99.99,,,0.18,Acu-Link.com,2013-07-13 12:15:00,
2013-07-13 08:30:00,77.5,72.6,29.87,SSE,157,2.2,-999.0,85,-99.99,,,0.18,Acu-Link.com,2013-07-13 12:30:00,
2013-07-13 08:45:00,78.4,73.2,29.87,SSW,202,2.7,-999.0,84,-99.99,,,0.18,Acu-Link.com,2013-07-13 12:45:00,
2013-07-13 09:00:00,79.9,75.0,29.87,SSW,202,2.2,-999.0,85,-99.99,,,0.18,Acu-Link.com,2013-07-13 13:00:00,
2013-07-13 09:16:00,80.1,72.2,29.89,SSW,202,2.7,-999.0,77,-99.99,,,0.18,Acu-Link.com,2013-07-13 13:16:00,
2013-07-13 09:31:00,80.8,72.1,29.88,SE,135,2.2,-999.0,75,-99.99,,,0.18,Acu-Link.com,2013-07-13 13:31:00,
2013-07-13 09:46:00,81.7,73.8,29.88,SSW,202,2.2,-999.0,77,-99.99,,,0.18,Acu-Link.com,2013-07-13 13:46:00,
2013-07-13 10:01:00,82.8,75.2,29.88,SE,135,3.2,-999.0,78,-99.99,,,0.18,Acu-Link.com,2013-07-13 14:01:00,
2013-07-13 10:16:00,82.4,75.2,29.89,South,180,2.2,-999.0,79,-99.99,,,0.18,Acu-Link.com,2013-07-13 14:16:00,
2013-07-13 10:31:00,82.0,73.7,29.88,SSW,202,3.7,-999.0,76,-99.99,,,0.18,Acu-Link.com,2013-07-13 14:31:00,
2013-07-13 10:46:00,83.1,74.3,29.89,South,180,5.3,-999.0,75,-99.99,,,0.18,Acu-Link.com,2013-07-13 14:46:00,
2013-07-13 11:01:00,83.8,75.4,29.89,SSE,157,4.7,-999.0,76,-99.99,,,0.18,Acu-Link.com,2013-07-13 15:01:00,
2013-07-13 11:16:00,84.2,76.2,29.91,SSW,202,3.2,-999.0,77,-99.99,,,0.18,Acu-Link.com,2013-07-13 15:16:00,
2013-07-13 11:31:00,84.9,75.3,29.90,South,180,3.2,-999.0,73,-99.99,,,0.18,Acu-Link.com,2013-07-13 15:31:00,
2013-07-13 11:47:00,85.1,75.0,29.90,East,90,2.7,-999.0,72,-99.99,,,0.18,Acu-Link.com,2013-07-13 15:47:00,
2013-07-13 12:02:00,85.6,75.1,29.90,ESE,112,5.3,-999.0,71,-99.99,,,0.18,Acu-Link.com,2013-07-13 16:02:00,
2013-07-13 12:17:00,86.2,76.1,29.90,SSE,157,4.2,-999.0,72,-99.99,,,0.18,Acu-Link.com,2013-07-13 16:17:00,
2013-07-13 12:32:00,86.9,76.3,29.90,SSE,157,2.2,-999.0,71,-99.99,,,0.18,Acu-Link.com,2013-07-13 16:32:00,
2013-07-13 12:47:00,86.5,75.1,29.91,SSE,157,4.2,-999.0,69,-99.99,,,0.18,Acu-Link.com,2013-07-13 16:47:00,
2013-07-13 13:02:00,87.1,75.7,29.92,WSW,247,3.2,-999.0,69,-99.99,,,0.18,Acu-Link.com,2013-07-13 17:02:00,
2013-07-13 13:17:00,87.4,75.5,29.91,SW,225,3.7,-999.0,68,-99.99,,,0.18,Acu-Link.com,2013-07-13 17:17:00,
2013-07-13 13:32:00,88.5,76.6,29.91,North,0,2.7,-999.0,68,-99.99,,,0.18,Acu-Link.com,2013-07-13 17:32:00,
2013-07-13 13:47:00,88.2,76.3,29.92,WSW,247,2.2,-999.0,68,-99.99,,,0.18,Acu-Link.com,2013-07-13 17:47:00,
2013-07-13 14:03:00,87.8,76.8,29.91,SSW,202,4.2,-999.0,70,-99.99,,,0.18,Acu-Link.com,2013-07-13 18:03:00,
2013-07-13 14:18:00,88.3,76.8,29.91,South,180,3.7,-999.0,69,-99.99,,,0.18,Acu-Link.com,2013-07-13 18:18:00,
2013-07-13 14:33:00,86.9,76.3,29.92,ESE,112,6.3,-999.0,71,-99.99,,,0.18,Acu-Link.com,2013-07-13 18:33:00,
2013-07-13 14:48:00,87.1,75.7,29.92,SSE,157,4.7,-999.0,69,-99.99,,,0.18,Acu-Link.com,2013-07-13 18:48:00,
2013-07-13 15:03:00,88.2,76.7,29.92,WSW,247,4.7,-999.0,69,-99.99,,,0.18,Acu-Link.com,2013-07-13 19:03:00,
2013-07-13 15:18:00,87.3,76.3,29.92,WSW,247,2.2,-999.0,70,-99.99,,,0.18,Acu-Link.com,2013-07-13 19:18:00,
2013-07-13 15:33:00,86.7,76.1,29.92,NE,45,2.7,-999.0,71,-99.99,,,0.18,Acu-Link.com,2013-07-13 19:33:00,
2013-07-13 15:48:00,87.4,76.8,29.92,SSE,157,3.7,-999.0,71,-99.99,,,0.18,Acu-Link.com,2013-07-13 19:48:00,
2013-07-13 16:03:00,86.0,75.9,29.92,SW,225,2.2,-999.0,72,-99.99,,,0.18,Acu-Link.com,2013-07-13 20:03:00,
2013-07-13 16:19:00,86.2,76.5,29.91,South,180,2.7,-999.0,73,-99.99,,,0.18,Acu-Link.com,2013-07-13 20:19:00,
2013-07-13 16:34:00,76.5,73.0,29.93,WNW,292,2.2,-999.0,89,-99.99,,,0.29,Acu-Link.com,2013-07-13 20:34:00,
2013-07-13 16:49:00,80.6,76.0,29.93,South,180,4.2,-999.0,86,-99.99,,,0.29,Acu-Link.com,2013-07-13 20:49:00,
2013-07-13 17:04:00,82.4,76.0,29.92,South,180,3.2,-999.0,81,-99.99,,,0.29,Acu-Link.com,2013-07-13 21:04:00,
2013-07-13 17:19:00,84.4,76.0,29.93,South,180,2.7,-999.0,76,-99.99,,,0.29,Acu-Link.com,2013-07-13 21:19:00,
2013-07-13 17:34:00,85.1,76.3,29.93,South,180,2.2,-999.0,75,-99.99,,,0.29,Acu-Link.com,2013-07-13 21:34:00,
2013-07-13 17:49:00,85.1,76.3,29.93,SE,135,2.2,-999.0,75,-99.99,,,0.29,Acu-Link.com,2013-07-13 21:49:00,
2013-07-13 18:04:00,85.3,76.5,29.93,SSE,157,2.2,-999.0,75,-99.99,,,0.29,Acu-Link.com,2013-07-13 22:04:00,
2013-07-13 18:19:00,84.6,76.2,29.94,SSW,202,2.2,-999.0,76,-99.99,,,0.29,Acu-Link.com,2013-07-13 22:19:00,
2013-07-13 18:35:00,81.5,74.3,29.96,WSW,247,10.9,-999.0,79,-99.99,,,0.29,Acu-Link.com,2013-07-13 22:35:00,
2013-07-13 18:50:00,77.5,72.3,29.96,SSW,202,2.2,-999.0,84,-99.99,,,0.30,Acu-Link.com,2013-07-13 22:50:00,
2013-07-13 19:05:00,77.4,72.5,29.96,SW,225,2.2,-999.0,85,-99.99,,,0.30,Acu-Link.com,2013-07-13 23:05:00,
2013-07-13 19:20:00,78.6,73.7,29.97,South,180,2.7,-999.0,85,-99.99,,,0.30,Acu-Link.com,2013-07-13 23:20:00,
2013-07-13 19:35:00,78.4,73.2,29.97,South,180,1.7,-999.0,84,-99.99,,,0.30,Acu-Link.com,2013-07-13 23:35:00,
2013-07-13 19:50:00,78.4,73.5,29.97,SSE,157,1.7,-999.0,85,-99.99,,,0.30,Acu-Link.com,2013-07-13 23:50:00,
2013-07-13 20:05:00,78.8,73.5,29.97,SSE,157,2.7,-999.0,84,-99.99,,,0.30,Acu-Link.com,2013-07-14 00:05:00,
2013-07-13 20:20:00,78.8,73.5,29.97,South,180,2.2,-999.0,84,-99.99,,,0.30,Acu-Link.com,2013-07-14 00:20:00,
2013-07-13 20:35:00,79.2,73.6,29.98,ESE,112,2.7,-999.0,83,-99.99,,,0.30,Acu-Link.com,2013-07-14 00:35:00,
2013-07-13 20:51:00,79.3,73.3,29.97,SSE,157,2.7,-999.0,82,-99.99,,,0.30,Acu-Link.com,2013-07-14 00:51:00,
2013-07-13 21:06:00,79.3,73.3,29.97,South,180,2.2,-999.0,82,-99.99,,,0.30,Acu-Link.com,2013-07-14 01:06:00,
2013-07-13 21:21:00,79.2,73.2,29.97,SW,225,2.2,-999.0,82,-99.99,,,0.30,Acu-Link.com,2013-07-14 01:21:00,
2013-07-13 21:36:00,79.0,73.0,29.98,ESE,112,2.7,-999.0,82,-99.99,,,0.30,Acu-Link.com,2013-07-14 01:36:00,
2013-07-13 21:51:00,78.8,72.8,29.98,SE,135,2.7,-999.0,82,-99.99,,,0.30,Acu-Link.com,2013-07-14 01:51:00,
2013-07-13 22:06:00,78.8,73.2,30.00,SSE,157,2.7,-999.0,83,-99.99,,,0.30,Acu-Link.com,2013-07-14 02:06:00,
2013-07-13 22:21:00,79.0,73.4,30.00,East,90,2.7,-999.0,83,-99.99,,,0.30,Acu-Link.com,2013-07-14 02:21:00,
2013-07-13 22:36:00,78.6,73.3,30.01,ESE,112,1.7,-999.0,84,-99.99,,,0.30,Acu-Link.com,2013-07-14 02:36:00,
2013-07-13 22:51:00,78.6,73.3,30.00,SSE,157,2.2,-999.0,84,-99.99,,,0.30,Acu-Link.com,2013-07-14 02:51:00,
2013-07-13 23:07:00,78.4,73.5,30.00,SW,225,1.7,-999.0,85,-99.99,,,0.30,Acu-Link.com,2013-07-14 03:07:00,
2013-07-13 23:22:00,78.4,73.5,30.01,SSE,157,1.1,-999.0,85,-99.99,,,0.30,Acu-Link.com,2013-07-14 03:22:00,
2013-07-13 23:37:00,78.4,73.5,30.01,ENE,67,1.7,-999.0,85,-99.99,,,0.30,Acu-Link.com,2013-07-14 03:37:00,
2013-07-13 23:52:00,78.3,73.8,30.01,East,90,0.0,-999.0,86,-99.99,,,0.30,Acu-Link.com,2013-07-14 03:52:00,